Regional Weather Roundup
Issued by NWS

Home | Current Version | Previous Version | Graphics & Text | Print | Product List | Glossary On
Versions: 1 2 3 4 5 6 7 8 9 10 11 12 13 14 15 16 17 18 19 20 21 22 23 24 25 26 27 28 29 30 31 32 33 34 35 36 37 38 39 40 41 42 43 44 45 46 47 48 49 50
000
ASUS45 KPSR 221710
RWRAZ

ARIZONA REGIONAL HOURLY WEATHER ROUNDUP
NATIONAL WEATHER SERVICE PHOENIX AZ
1000 AM MST MON DEC 22 2014

NOTE: FAIR INDICATES FEW OR NO CLOUDS BELOW 12,000 FEET WITH NO
SIGNIFICANT WEATHER AND/OR OBSTRUCTIONS TO VISIBILITY.

AZZ001>003-036-221800-
NORTHWEST ARIZONA

CITY           SKY/WX    TMP DP  RH WIND       PRES   REMARKS
BULLHEAD CITY  SUNNY     52  45  76 NW3       30.08S
KINGMAN        SUNNY     56  40  55 E7        30.10R
$$

AZZ004>008-015-016-018-221800-
NORTH CENTRAL ARIZONA

CITY           SKY/WX    TMP DP  RH WIND       PRES   REMARKS
GRAND CANYON   SUNNY     46  34  62 N8G20     30.09R
PRESCOTT       SUNNY     52  34  50 NW7       30.10R
FLAGSTAFF      SUNNY     48  32  53 VRB7      30.09R
PAYSON         SUNNY     50  36  57 SW6       30.07R
PAGE           SUNNY     45  35  68 CALM      29.97S
$$

AZZ009>014-017-221800-
NORTHEAST ARIZONA

CITY           SKY/WX    TMP DP  RH WIND       PRES   REMARKS
WINSLOW        SUNNY     45  36  70 CALM      30.03S
SAINT JOHNS    SUNNY     45  35  68 CALM      30.03R
WINDOW ROCK    SUNNY     42  32  67 CALM      29.99F
SHOW LOW       SUNNY     46  32  57 CALM      30.10R
$$

AZZ023-221800-
GREATER PHOENIX AREA

CITY           SKY/WX    TMP DP  RH WIND       PRES   REMARKS
PHOENIX        MOSUNNY   54  42  64 E5        30.04R
BUCKEYE        SUNNY     52  46  82 CALM      30.06R
GLENDALE       SUNNY     52  45  76 CALM      30.06R
DEER VALLEY    SUNNY     54  41  61 SE3       30.03R
SCOTTSDALE     SUNNY     53  41  63 CALM      30.06R
MESA-FALCON    SUNNY     52  41  66 VRB5      30.04R
MESA-GATEWAY   SUNNY     50  43  76 SE7       30.05S
CHANDLER       SUNNY     52  45  76 CALM      30.06R
$$

AZZ027-028-221800-
SOUTHWEST MARICOPA COUNTY AND PINAL COUNTY

CITY           SKY/WX    TMP DP  RH WIND       PRES   REMARKS
CASA GRANDE    SUNNY     50  41  71 MISG      30.05R
$$

AZZ503-504-507>509-221800-
SOUTHEAST ARIZONA

CITY           SKY/WX    TMP DP  RH WIND       PRES   REMARKS
TUCSON         SUNNY     49  39  68 VRB5      30.06F
RYAN FIELD       N/A     52  45  76 CALM      30.05F
NOGALES        SUNNY     51  35  54 CALM      30.06R
DOUGLAS        SUNNY     49  34  56 CALM      30.06R
SAFFORD        SUNNY     47  36  65 CALM      30.01F
$$

AZZ020-021-025-026-031-221800-
SOUTHWEST ARIZONA

CITY           SKY/WX    TMP DP  RH WIND       PRES   REMARKS
YUMA           SUNNY    N/A N/A N/A CALM      30.04R
$$

CAZ031-033-041-043-047-048-061-221800-
SOUTHERN CALIFORNIA

CITY           SKY/WX    TMP DP  RH WIND       PRES   REMARKS
DOWNTOWN L.A.  SUNNY     57  49  74 CALM      30.05R HAZE
L.A. AIRPORT   MOSUNNY   58  50  75 SE5       30.06R
SAN DIEGO      SUNNY     60  50  69 CALM      30.06R
BURBANK        SUNNY     60  47  61 CALM      30.05R
ONTARIO        SUNNY     62  48  60 CALM      30.06R
RIVERSIDE      SUNNY     57  47  69 CALM      30.06R
PALM SPRINGS   SUNNY     58  46  64 CALM      30.05S
EL CENTRO NAS  MOSUNNY   55  45  68 CALM      30.04S
IMPERIAL       SUNNY     53  45  74 S3        30.04S
BLYTHE         SUNNY     52  46  80 S5        30.06R
NEEDLES        SUNNY     56  43  61 N5        30.06R
$$

NVZ020-UTZ003-221800-
SOUTHERN NEVADA-UTAH

CITY           SKY/WX    TMP DP  RH WIND       PRES   REMARKS
LAS VEGAS      SUNNY     56  40  55 S8        30.04R
SALT LAKE CITY LGT RAIN  40  37  89 E5        30.00S
$$

NMZ009-TXZ055-221800-
NEW MEXICO-WEST TEXAS

CITY           SKY/WX    TMP DP  RH WIND       PRES   REMARKS
ALBUQUERQUE    MOSUNNY   49  33  54 S8        29.90F
EL PASO        MOSUNNY   60  33  36 SW9       29.91R
$$


........................KEY........................
SKY/WX - SKY CONDITION/WEATHER
TMP    - TEMPERATURE IN FAHRENHEIT
DP     - DEW POINT IN FAHRENHEIT
RH     - RELATIVE HUMIDITY IN PERCENT
WIND   - DIRECTION AND SPEED IN MILES PER HOUR (MPH)
VRB    - VARIABLE WIND DIRECTION
PRES   - MEAN SEA LEVEL PRESSURE IN INCHES OF MERCURY
         F - FALLING PRESSURE   R - RISING PRESSURE
         S - STEADY PRESSURE
VSB    - VISIBILITY IN MILES
HX     - HEAT INDEX IN FAHRENHEIT
WCI    - WIND CHILL INDEX IN FAHRENHEIT
TC     - TEMPERATURE IN CELSIUS WHICH IS ALSO KNOWN AS
         TEMPERATURE IN CENTIGRADE
AFB    - AIR FORCE BASE
         LUKE AFB IS LUKE AIR FORCE BASE
         DAVIS-MONTHAN IS DAVIS-MONTHAN AIR FORCE BASE
NAS    - NAVAL AIR STATION
         EL CENTRO NAS IS EL CENTRO NAVAL AIR STATION
N/A    - NOT AVAILABLE


USA.gov is the U.S. government's official web portal to all federal, state and local government web resources and services.